Radiation Dose measured at exhaust stack monitor of Fukushima Daiichi Nuclear Power Station
Date,Time,Unit 5 6 shared exhaust cylinders,Wind Direction,Wind Velocity(m/s)
2021/04/18,00:00,4.0,south,9.8
2021/04/18,00:10,4.0,south-southeast,10.9
2021/04/18,00:20,4.0,south-southeast,9.7
2021/04/18,00:30,3.8,south-southeast,10.9
2021/04/18,00:40,3.8,south-southeast,10.8
2021/04/18,00:50,3.8,southeast,13.5
2021/04/18,01:00,4.0,south-southeast,12.7
2021/04/18,01:10,3.9,south-southeast,11.3
2021/04/18,01:20,3.9,south-southeast,12.4
2021/04/18,01:30,4.0,south-southeast,9.4
2021/04/18,01:40,3.9,-,CALM
2021/04/18,01:50,3.9,south,9.1
2021/04/18,02:00,3.9,south-southeast,11.6
2021/04/18,02:10,3.8,south-southeast,7.6
2021/04/18,02:20,4.0,south,4.6
2021/04/18,02:30,4.1,south-southwest,4.9
2021/04/18,02:40,3.9,southeast,6.4
2021/04/18,02:50,3.9,north-northwest,1.2
2021/04/18,03:00,4.0,northeast,3.7
2021/04/18,03:10,4.0,north-northeast,2.9
2021/04/18,03:20,4.0,west-northwest,7.1
2021/04/18,03:30,3.8,west-northwest,7.9
2021/04/18,03:40,4.1,west-northwest,7.4
2021/04/18,03:50,4.0,west-northwest,7.5
2021/04/18,04:00,3.8,west-northwest,9.3
2021/04/18,04:10,3.9,west-northwest,8.6
2021/04/18,04:20,3.9,west-northwest,7.0
2021/04/18,04:30,3.9,west-northwest,6.9
2021/04/18,04:40,3.8,west-northwest,6.7
2021/04/18,04:50,4.0,west-northwest,5.2
2021/04/18,05:00,4.0,west-northwest,4.6
2021/04/18,05:10,3.9,northwest,6.4
2021/04/18,05:20,4.0,west-northwest,9.6
2021/04/18,05:30,4.2,west-northwest,8.7
2021/04/18,05:40,4.0,west,7.4
2021/04/18,05:50,4.1,west,9.3
2021/04/18,06:00,4.0,west,10.0
2021/04/18,06:10,3.8,west-northwest,10.0
2021/04/18,06:20,3.9,west,7.9
2021/04/18,06:30,4.1,west-northwest,6.3
2021/04/18,06:40,4.0,southwest,2.0
2021/04/18,06:50,4.2,west,5.4
2021/04/18,07:00,3.8,west,4.9
2021/04/18,07:10,3.9,west,4.0
2021/04/18,07:20,4.0,west,4.3
2021/04/18,07:30,4.0,southwest,4.6
2021/04/18,07:40,3.9,west-southwest,6.0
2021/04/18,07:50,4.0,west-southwest,7.1
2021/04/18,08:00,3.9,southwest,5.1
2021/04/18,08:10,4.0,southwest,6.7
2021/04/18,08:20,3.9,west-southwest,7.8
2021/04/18,08:30,4.0,west-southwest,7.4
2021/04/18,08:40,3.9,west,5.9
2021/04/18,08:50,4.0,west,5.3
2021/04/18,09:00,4.1,west,5.8
2021/04/18,09:10,3.8,west-northwest,6.4
2021/04/18,09:20,3.8,west,3.7
2021/04/18,09:30,4.0,west-northwest,8.2
2021/04/18,09:40,3.9,west,8.5
2021/04/18,09:50,3.9,west,8.9
2021/04/18,10:00,3.8,west-northwest,8.9
2021/04/18,10:10,4.1,west,7.0
2021/04/18,10:20,4.0,west,7.3
2021/04/18,10:30,4.1,west,7.7
2021/04/18,10:40,4.0,west,7.4
2021/04/18,10:50,3.9,west,7.0
2021/04/18,11:00,3.9,west,11.1
2021/04/18,11:10,3.9,west-southwest,7.3
2021/04/18,11:20,3.8,west-southwest,10.0
2021/04/18,11:30,3.9,west,10.8
2021/04/18,11:40,3.9,west,13.8
2021/04/18,11:50,4.0,west,12.0
2021/04/18,12:00,4.0,west-southwest,8.7
2021/04/18,12:10,4.0,west-southwest,8.1
2021/04/18,12:20,3.8,west,8.8
2021/04/18,12:30,3.8,west,8.8
2021/04/18,12:40,4.0,west,12.5
2021/04/18,12:50,3.9,west-southwest,8.8
2021/04/18,13:00,4.2,west-southwest,10.6
2021/04/18,13:10,4.0,west,12.4
2021/04/18,13:20,4.1,west-southwest,12.7
2021/04/18,13:30,3.7,west-southwest,14.7
2021/04/18,13:40,4.0,west-southwest,15.2
2021/04/18,13:50,3.8,west,13.1
2021/04/18,14:00,3.9,west,14.9
2021/04/18,14:10,4.0,west,13.6
2021/04/18,14:20,4.0,west,14.4
2021/04/18,14:30,4.0,west,14.4
2021/04/18,14:40,4.0,west,11.3
2021/04/18,14:50,4.0,west,14.7
2021/04/18,15:00,4.1,west-southwest,14.7
2021/04/18,15:10,3.9,west-southwest,13.1
2021/04/18,15:20,4.0,west-southwest,18.0
2021/04/18,15:30,3.9,southwest,13.0
2021/04/18,15:40,3.8,west-southwest,13.8
2021/04/18,15:50,3.9,west-southwest,14.7
2021/04/18,16:00,3.9,southwest,15.2
2021/04/18,16:10,4.0,west-southwest,13.1
2021/04/18,16:20,3.8,southwest,8.3
2021/04/18,16:30,4.1,west-southwest,10.7
2021/04/18,16:40,4.1,west-southwest,9.9
2021/04/18,16:50,3.9,west-southwest,7.1
2021/04/18,17:00,3.9,west-southwest,5.5
2021/04/18,17:10,4.0,west-southwest,7.4
2021/04/18,17:20,3.9,south-southwest,6.1
2021/04/18,17:30,3.9,west-southwest,6.3
2021/04/18,17:40,4.0,southwest,8.9
2021/04/18,17:50,4.1,south-southwest,5.8
2021/04/18,18:00,3.9,south,7.0
2021/04/18,18:10,4.0,southwest,4.5
2021/04/18,18:20,4.0,southwest,4.9
2021/04/18,18:30,4.0,south-southwest,6.4
2021/04/18,18:40,4.0,south-southwest,4.2
2021/04/18,18:50,3.9,south-southwest,6.2
2021/04/18,19:00,3.9,west-southwest,7.8
2021/04/18,19:10,4.1,west-southwest,10.2
2021/04/18,19:20,4.0,southwest,9.1
2021/04/18,19:30,3.9,southwest,8.8
2021/04/18,19:40,3.9,southwest,8.4
2021/04/18,19:50,3.9,southwest,7.3
2021/04/18,20:00,4.0,southwest,7.8
2021/04/18,20:10,3.9,southwest,7.3
2021/04/18,20:20,4.0,southwest,7.5
2021/04/18,20:30,3.9,southwest,8.9
2021/04/18,20:40,4.1,west-southwest,9.4
2021/04/18,20:50,3.8,southwest,7.5
2021/04/18,21:00,3.9,southwest,9.3
2021/04/18,21:10,4.0,southwest,6.7
2021/04/18,21:20,3.8,southwest,7.3
2021/04/18,21:30,3.9,southwest,8.7
2021/04/18,21:40,4.0,west-southwest,10.4
2021/04/18,21:50,4.0,west-southwest,9.7
2021/04/18,22:00,3.9,southwest,8.5
2021/04/18,22:10,3.9,west-southwest,7.8
2021/04/18,22:20,3.8,west-southwest,8.8
2021/04/18,22:30,3.9,west-southwest,10.5
2021/04/18,22:40,3.9,southwest,10.5
2021/04/18,22:50,4.1,west-southwest,12.7
2021/04/18,23:00,3.8,west-southwest,13.3
2021/04/18,23:10,4.0,west-southwest,10.7
2021/04/18,23:20,3.9,southwest,9.5
2021/04/18,23:30,3.9,west-southwest,9.1
2021/04/18,23:40,3.8,west-southwest,9.8
2021/04/18,23:50,4.0,west-southwest,8.5
